Wind_Speed
5 3 3 7 5 8 9 9 9 11 12 12 7 11 11 16 20 20 25 23 24 22 25 27 29 24 23 31 34 34 33 35 41 41 35 31 33 32 32 31 30 29 29 32
2 3 4 5 5 5 6 8 10 11 4 7 11 17 14 15 23 27 21 22 23 24 23 23 26 27 27 26 35 35 37 35 36 43 42 36 34 34 33 32 32 31 29 32
3 8 13 9 3 6 5 5 7 11 12 9 15 14 12 12 30 29 26 26 21 23 22 19 18 26 26 27 29 37 38 38 31 33 41 40 35 34 34 36 35 34 32 31
4 5 6 7 7 6 6 6 7 7 4 4 11 6 7 8 5 12 28 27 29 25 27 28 24 25 30 30 28 35 39 37 34 31 32 44 41 41 42 40 38 39 36 35
5 8 8 9 5 4 2 8 8 8 7 7 4 3 6 5 4 2 5 11 30 31 30 30 30 29 30 30 29 34 41 41 39 36 35 36 44 42 41 39 40 40 39 39
10 9 5 3 9 5 5 4 9 6 2 3 9 6 2 1 7 14 19 19 20 17 17 26 25 30 30 31 27 31 36 42 42 40 36 37 41 44 37 40 40 41 42 41
8 1 4 2 5 1 1 2 3 1 2 5 1 5 8 15 14 8 12 19 20 20 21 22 20 25 28 30 33 31 34 41 39 40 37 35 39 38 44 40 41 42 43 42
6 4 3 4 3 4 2 1 1 4 2 3 8 5 4 9 19 25 26 27 26 23 23 24 27 27 25 36 37 38 37 39 39 40 37 34 32 35 41 44 42 43 44 43
4 4 4 4 4 1 2 1 3 3 4 1 4 6 3 13 15 22 27 27 25 21 22 23 24 24 23 23 27 41 38 40 40 39 38 32 31 32 42 41 41 39 40 42
1 6 1 2 1 3 2 4 1 1 3 4 5 5 3 16 18 16 19 24 26 26 21 21 18 19 20 21 13 34 35 37 39 38 36 32 26 28 37 44 42 33 41 44
4 3 4 2 2 1 1 2 4 3 3 2 4 3 5 10 11 14 15 20 23 23 21 17 17 20 20 15 11 30 31 32 34 37 34 31 39 29 28 34 41 45 40 46
3 3 5 3 1 5 4 3 5 3 2 2 2 3 6 8 10 14 16 24 23 20 20 16 13 8 8 2 9 18 24 25 28 29 34 32 31 27 25 30 36 40 45 45
3 2 4 1 1 0 3 4 5 7 2 5 3 4 5 13 13 19 21 26 21 20 20 14 12 16 15 13 13 12 15 17 20 23 23 22 24 29 28 25 30 34 38 42
3 2 4 3 3 2 4 3 7 5 3 1 3 8 14 17 16 23 26 26 23 23 22 17 13 29 33 27 18 13 7 5 8 15 18 21 22 26 27 22 26 30 33 35
1 4 4 8 10 5 4 4 9 3 8 5 2 2 9 11 12 18 22 26 24 23 26 25 25 33 37 37 33 28 25 18 11 9 10 11 17 19 21 24 27 30 31 32
3 3 6 5 4 5 8 7 10 4 7 3 1 4 4 12 16 21 24 26 28 31 34 33 31 34 37 37 34 31 29 27 24 22 20 16 10 3 9 15 23 28 30 30
2 4 3 2 4 6 3 1 5 3 4 4 4 3 7 5 11 15 22 26 28 27 27 31 33 34 33 32 30 30 29 27 26 25 22 20 20 18 14 10 6 4 10 16
2 3 2 4 3 1 4 5 4 2 1 2 1 2 1 4 3 12 15 16 18 20 23 25 28 30 30 28 26 25 22 22 22 23 22 21 21 21 20 19 17 14 11 11
8 2 3 3 3 2 1 4 5 3 1 3 2 4 7 9 8 7 14 12 13 15 18 22 25 26 27 29 28 26 26 24 22 23 20 19 19 20 21 22 22 21 22 20
7 6 2 2 3 3 1 5 9 4 2 13 5 4 8 11 2 2 12 11 12 14 17 21 23 24 25 28 28 28 29 29 30 28 26 23 21 17 15 15 16 18 20 21
1 2 6 5 4 5 4 9 8 1 2 13 6 1 5 2 2 3 8 11 13 14 15 17 20 23 25 25 26 28 28 30 29 27 26 26 25 23 20 19 17 15 15 16
5 5 4 2 2 6 10 6 4 3 3 6 5 3 3 2 1 3 7 9 10 10 10 13 16 19 22 23 24 26 28 27 26 26 26 25 25 24 25 24 23 23 23 22
2 5 3 6 4 3 16 5 9 5 6 6 4 3 3 3 1 4 6 8 9 9 9 10 13 16 19 22 24 25 27 26 26 26 26 26 26 27 28 28 28 28 29 31
5 4 2 4 4 12 14 11 10 11 9 6 5 3 3 2 3 4 6 7 8 8 9 8 10 13 17 19 20 22 23 24 24 24 25 26 26 27 28 28 30 31 32 33
3 9 5 6 10 7 16 22 15 15 12 10 7 6 5 5 7 8 8 9 9 7 6 5 6 9 12 14 16 18 20 21 22 22 24 25 26 28 29 30 30 29 28 28
13 8 6 7 9 6 5 20 24 20 18 14 12 10 8 7 10 11 11 10 8 6 5 4 4 5 8 10 13 16 19 22 22 22 23 24 24 24 25 25 25 26 26 28
Wind_Direction
60 325 310 354 327 337 328 307 292 295 310 311 266 266 266 276 287 269 265 270 267 261 255 233 224 223 226 210 220 224 221 218 214 209 204 215 208 213 219 221 220 221 213 204
256 282 43 8 1 337 310 299 292 288 288 331 294 281 271 255 250 256 262 250 246 261 260 251 216 218 225 225 222 226 227 223 219 217 217 216 218 219 224 225 223 223 220 214
275 285 310 307 325 302 298 269 276 280 314 293 273 278 248 249 238 242 252 259 258 256 270 257 232 219 225 231 225 226 229 224 226 227 220 221 225 225 226 226 225 222 222 221
305 355 356 338 321 291 305 15 345 324 333 279 18 294 300 307 283 208 229 239 248 254 256 262 260 232 227 236 237 221 226 228 225 225 230 223 217 220 227 228 228 227 223 224
308 333 4 331 296 354 17 6 317 303 291 319 263 239 269 243 285 308 306 257 232 240 245 256 262 264 240 239 243 229 219 226 227 223 238 233 225 223 229 231 232 230 227 226
260 265 311 263 336 320 346 304 275 265 293 257 220 201 283 329 356 338 322 330 330 314 261 253 252 253 258 238 237 239 223 220 227 227 228 236 234 227 225 231 233 232 232 230
304 274 136 240 304 136 148 337 318 201 179 226 32 190 246 297 317 5 2 352 337 336 318 311 298 267 260 246 234 236 232 221 225 231 228 232 240 234 226 228 235 232 236 236
353 337 159 125 267 322 265 250 317 305 343 301 318 257 248 63 36 6 358 346 338 334 330 318 303 294 284 246 239 235 233 232 225 232 233 236 239 236 230 231 237 239 245 250
332 274 10 71 354 70 359 277 352 300 236 292 236 258 310 20 7 356 342 334 327 328 326 315 299 304 290 281 246 233 232 232 235 231 233 238 241 237 228 234 235 241 250 253
340 291 188 16 3 44 281 338 284 159 305 283 281 296 306 353 344 347 341 335 333 332 326 318 301 288 282 277 275 235 238 234 232 234 231 229 252 249 244 234 238 248 245 252
160 229 294 301 191 286 124 225 217 299 263 276 308 281 14 340 339 339 333 331 327 329 333 319 299 276 281 287 268 223 226 236 235 234 232 231 233 248 253 250 248 249 250 247
97 318 281 247 315 309 294 304 271 248 213 245 307 283 8 347 330 321 336 342 334 331 334 341 338 291 266 254 168 189 209 218 226 238 237 235 239 246 259 253 250 253 250 247
28 263 295 261 315 203 46 351 324 290 244 212 268 281 8 14 354 345 353 348 347 351 347 6 11 71 84 91 97 128 177 205 222 224 236 245 251 247 251 261 265 263 252 248
113 262 266 285 334 276 307 341 350 302 276 238 247 321 0 353 353 348 352 355 358 12 12 341 15 67 71 77 80 82 117 178 202 207 216 217 217 218 228 246 259 264 263 258
13 274 267 277 269 224 270 358 353 310 302 249 81 52 353 348 340 336 347 4 359 6 14 2 20 56 63 68 70 69 72 80 81 102 177 201 217 229 233 237 241 248 249 254
32 279 313 274 197 228 273 6 341 323 340 55 135 71 343 341 353 0 359 2 6 10 17 27 25 45 54 59 61 61 61 62 60 62 60 55 64 139 222 236 239 245 251 252
309 330 303 290 185 244 228 14 324 336 10 338 26 358 344 343 358 7 359 8 14 14 23 34 39 45 52 52 48 50 53 54 54 53 50 44 39 34 32 26 17 299 268 260
259 303 266 282 327 275 237 167 239 148 44 23 25 11 352 291 2 35 22 17 19 23 30 34 38 45 48 53 55 53 48 45 45 46 41 35 29 27 21 11 1 350 342 327
204 273 293 298 301 254 279 189 179 152 57 193 208 242 244 287 257 28 17 22 19 26 37 38 39 42 47 49 52 53 54 52 51 47 41 36 30 21 8 360 356 351 341 328
192 228 268 318 285 239 168 146 155 154 192 188 214 342 340 322 110 20 359 15 27 29 34 39 42 43 45 46 47 47 47 46 43 41 39 36 32 24 10 356 345 337 320 319
176 198 222 233 261 275 131 142 161 130 229 145 156 53 1 55 83 334 9 19 22 22 29 36 38 40 43 41 42 42 41 41 38 35 34 32 29 27 22 18 11 355 337 323
181 160 207 140 230 289 152 130 201 136 117 145 146 161 136 145 99 10 12 14 18 19 25 31 35 40 42 41 40 40 40 37 33 32 31 29 28 26 24 23 19 13 10 6
269 198 214 186 217 158 187 219 202 201 186 197 188 181 177 190 307 338 356 0 6 9 14 25 29 33 33 29 29 30 30 28 27 27 28 28 27 24 21 20 19 16 13 11
234 178 227 32 250 219 216 218 223 203 206 199 190 180 177 209 277 313 326 339 341 348 360 10 18 23 26 26 24 23 23 22 20 21 23 23 24 28 25 20 19 16 13 11
198 143 193 261 272 264 235 221 214 203 204 202 204 213 232 262 283 293 299 306 315 319 324 341 358 13 18 19 16 15 17 18 16 17 17 19 20 21 25 27 22 21 21 16
184 191 176 221 221 204 209 222 206 202 202 204 208 213 237 264 285 292 290 284 282 287 299 299 325 358 12 13 10 9 10 8 7 10 12 14 15 18 18 19 25 26 21 13
Height
1517 1519 1510 1508 1506 1506 1507 1506 1504 1497 1492 1492 1491 1489 1487 1484 1481 1478 1478 1478 1480 1482 1483 1483 1484 1488 1494 1500 1502 1504 1508 1512 1519 1524 1528 1531 1534 1538 1540 1543 1546 1549 1553 1555
1517 1513 1511 1511 1510 1511 1511 1511 1509 1500 1494 1497 1491 1483 1481 1477 1474 1473 1474 1474 1477 1479 1480 1481 1480 1483 1487 1492 1496 1498 1502 1506 1510 1517 1522 1526 1530 1533 1536 1539 1541 1544 1549 1552
1518 1512 1511 1510 1510 1510 1508 1508 1508 1506 1498 1496 1491 1480 1468 1461 1464 1469 1471 1472 1475 1478 1477 1478 1478 1477 1480 1485 1490 1492 1497 1500 1503 1510 1518 1523 1526 1530 1531 1532 1536 1539 1543 1547
1514 1511 1512 1512 1509 1506 1510 1505 1506 1505 1507 1509 1497 1506 1468 1460 1458 1463 1466 1469 1470 1473 1474 1474 1474 1474 1474 1478 1483 1486 1489 1494 1497 1503 1509 1514 1518 1520 1522 1526 1529 1533 1538 1541
1516 1513 1513 1513 1509 1508 1507 1509 1509 1507 1506 1507 1501 1514 1472 1459 1462 1460 1462 1463 1465 1467 1469 1472 1471 1472 1471 1473 1476 1479 1482 1485 1491 1495 1498 1505 1510 1514 1518 1522 1525 1527 1531 1535
1519 1515 1516 1513 1510 1509 1509 1510 1506 1503 1507 1513 1498 1498 1475 1465 1467 1465 1463 1463 1463 1464 1465 1466 1467 1469 1469 1468 1471 1474 1478 1479 1482 1487 1492 1495 1501 1507 1512 1515 1517 1520 1522 1528
1513 1508 1513 1515 1514 1509 1511 1514 1528 1515 1521 1529 1480 1495 1480 1468 1466 1467 1466 1464 1463 1462 1461 1460 1462 1464 1465 1464 1464 1467 1471 1475 1477 1480 1485 1489 1493 1499 1505 1507 1512 1514 1516 1519
1528 1525 1510 1515 1515 1513 1515 1514 1525 1519 1512 1508 1486 1489 1474 1466 1469 1470 1469 1467 1466 1464 1461 1459 1458 1457 1457 1457 1457 1459 1466 1468 1470 1472 1476 1482 1488 1493 1497 1502 1505 1508 1510 1513
1533 1524 1513 1514 1515 1517 1517 1516 1514 1515 1513 1513 1490 1469 1463 1470 1473 1475 1473 1471 1464 1462 1460 1459 1455 1453 1452 1450 1448 1449 1457 1462 1464 1465 1470 1474 1480 1486 1491 1494 1499 1499 1502 1505
1538 1531 1522 1517 1517 1518 1518 1520 1515 1521 1533 1520 1493 1476 1476 1484 1482 1480 1477 1473 1468 1462 1459 1458 1453 1448 1445 1443 1442 1445 1451 1454 1459 1461 1465 1466 1472 1478 1483 1488 1490 1491 1494 1496
1536 1536 1524 1521 1518 1514 1518 1516 1515 1510 1510 1513 1510 1496 1496 1494 1490 1483 1480 1474 1470 1466 1460 1455 1450 1447 1444 1442 1439 1442 1445 1451 1455 1458 1460 1463 1463 1471 1477 1481 1484 1486 1489 1490
1536 1534 1529 1516 1515 1515 1514 1513 1512 1512 1510 1510 1509 1498 1498 1497 1494 1488 1480 1474 1471 1467 1461 1455 1449 1445 1443 1440 1437 1437 1442 1446 1450 1453 1457 1459 1461 1463 1470 1474 1477 1480 1483 1484
1537 1532 1527 1514 1520 1515 1517 1516 1516 1512 1509 1504 1506 1497 1496 1495 1494 1488 1480 1476 1472 1467 1461 1454 1451 1442 1439 1437 1435 1435 1438 1443 1447 1450 1453 1456 1458 1458 1462 1468 1471 1474 1477 1478
1536 1535 1529 1523 1519 1520 1523 1519 1514 1514 1507 1501 1497 1497 1498 1497 1495 1490 1484 1479 1472 1467 1464 1461 1454 1441 1438 1436 1435 1438 1440 1443 1445 1447 1449 1450 1452 1454 1459 1460 1464 1467 1470 1471
1534 1532 1527 1523 1520 1518 1518 1517 1516 1514 1509 1501 1504 1506 1508 1504 1501 1496 1489 1483 1477 1472 1465 1463 1453 1445 1441 1439 1441 1443 1443 1443 1444 1444 1446 1448 1450 1451 1453 1456 1457 1460 1462 1463
1534 1531 1528 1523 1519 1518 1516 1515 1513 1515 1510 1503 1505 1510 1510 1508 1503 1496 1491 1486 1480 1474 1467 1459 1457 1451 1444 1444 1446 1448 1447 1446 1446 1446 1448 1449 1448 1447 1448 1450 1452 1454 1456 1456
1535 1535 1529 1511 1516 1521 1516 1517 1515 1513 1514 1511 1509 1512 1512 1510 1505 1502 1497 1492 1487 1483 1479 1470 1465 1457 1453 1452 1452 1450 1449 1449 1448 1449 1451 1451 1450 1449 1448 1448 1448 1448 1449 1449
1535 1534 1532 1526 1524 1519 1513 1512 1513 1513 1515 1514 1512 1512 1512 1509 1508 1505 1502 1499 1496 1491 1487 1482 1476 1469 1464 1461 1459 1457 1456 1453 1452 1451 1453 1453 1452 1449 1449 1449 1448 1448 1446 1445
1534 1533 1531 1524 1523 1513 1511 1509 1512 1509 1511 1511 1511 1509 1507 1505 1505 1506 1504 1501 1498 1494 1489 1484 1479 1474 1470 1466 1464 1463 1461 1459 1457 1456 1456 1454 1452 1450 1450 1449 1448 1446 1445 1444
1530 1531 1533 1526 1516 1523 1502 1505 1507 1507 1509 1504 1506 1506 1506 1504 1503 1506 1504 1501 1498 1495 1490 1486 1482 1479 1475 1472 1469 1467 1464 1463 1461 1460 1458 1457 1455 1453 1453 1451 1448 1446 1446 1441
1543 1536 1529 1519 1515 1508 1502 1503 1506 1510 1506 1501 1504 1505 1507 1505 1506 1505 1502 1500 1497 1495 1492 1489 1486 1482 1478 1476 1474 1471 1470 1466 1465 1463 1462 1459 1456 1454 1453 1450 1447 1446 1443 1440
1531 1537 1536 1531 1527 1521 1499 1504 1505 1500 1500 1501 1502 1502 1503 1503 1502 1502 1501 1499 1497 1496 1494 1491 1488 1485 1483 1481 1479 1476 1472 1471 1469 1466 1463 1462 1459 1457 1452 1449 1447 1445 1440 1436
1533 1514 1516 1509 1500 1492 1494 1494 1495 1496 1497 1499 1500 1500 1501 1502 1502 1501 1500 1499 1497 1495 1494 1492 1490 1488 1485 1483 1480 1478 1475 1473 1471 1469 1467 1465 1461 1457 1452 1449 1447 1444 1438 1434
1509 1507 1513 1508 1488 1487 1489 1491 1492 1493 1495 1496 1497 1498 1499 1500 1500 1500 1499 1497 1496 1495 1493 1492 1491 1489 1486 1484 1483 1480 1478 1476 1474 1471 1469 1466 1462 1459 1455 1452 1448 1443 1438 1434
1504 1505 1505 1501 1487 1486 1483 1483 1486 1489 1491 1493 1494 1496 1497 1497 1497 1496 1496 1495 1494 1493 1492 1492 1491 1489 1488 1486 1484 1482 1480 1478 1476 1472 1469 1466 1462 1459 1456 1452 1448 1445 1441 1437
1489 1488 1494 1487 1473 1474 1472 1473 1480 1483 1486 1489 1490 1492 1494 1494 1494 1493 1492 1492 1492 1492 1491 1491 1491 1490 1489 1487 1486 1483 1480 1478 1475 1472 1470 1467 1465 1461 1457 1455 1453 1448 1444 1439